Wind_Speed
13 13 14 14 14 14 14 15 16 16 16 16 15 15 16 20 17 8 10 7 7 19 14 8 11 6 4 2 4 6 3 2 9 3 9 9 11 9 11 12 8 3 20 24 25
13 13 14 14 14 15 15 16 16 17 16 15 14 14 16 18 16 16 6 6 8 21 12 9 10 11 3 2 4 4 2 6 1 2 11 7 10 14 11 11 10 16 24 27 24
13 13 14 14 14 15 16 16 18 17 15 13 13 12 13 14 14 5 7 9 11 19 11 5 7 9 2 6 4 3 1 7 3 7 8 6 10 4 10 9 14 17 22 22 23
14 14 14 15 15 15 16 18 19 17 14 11 11 10 11 6 7 8 1 10 13 17 16 6 10 2 16 6 11 8 3 3 9 11 8 6 3 3 9 8 13 18 21 20 19
15 16 16 16 16 16 16 20 18 18 13 10 8 8 6 9 14 4 2 12 17 17 15 13 16 10 4 10 11 6 10 10 7 6 10 8 4 7 8 11 16 19 19 18 17
17 18 18 17 16 16 18 18 18 15 10 7 6 5 8 15 3 1 4 14 17 19 16 16 9 11 11 5 10 15 11 10 10 9 8 9 6 7 8 15 17 17 18 17 16
18 18 19 17 16 15 17 17 14 12 7 4 4 5 11 10 1 4 8 14 17 17 14 13 11 11 10 8 2 7 10 9 9 10 11 9 10 8 13 15 16 16 16 15 15
17 18 19 16 15 16 15 12 11 10 4 1 3 6 9 1 5 6 13 13 16 13 15 7 8 14 16 2 7 13 11 12 12 12 8 9 6 14 15 16 17 18 16 14 15
18 18 17 14 13 13 13 8 8 6 3 2 5 8 7 0 8 14 14 15 15 13 12 11 11 15 13 14 11 11 6 8 8 8 10 11 9 15 14 16 18 19 17 16 15
21 19 14 12 12 10 12 9 9 7 4 6 8 7 6 2 2 6 15 16 12 13 13 13 10 14 16 15 14 18 16 14 7 12 7 9 6 15 16 18 19 19 18 17 16
19 15 12 10 8 7 13 7 5 7 14 12 8 12 7 2 7 12 13 15 15 15 18 18 16 19 21 21 21 9 14 10 7 6 9 12 8 14 15 16 17 16 19 18 18
19 14 12 10 2 4 12 5 7 6 8 8 5 7 9 11 8 12 16 14 19 21 21 21 23 23 21 20 17 6 15 9 7 11 10 9 11 14 18 15 18 17 21 20 19
17 12 9 4 2 3 6 6 6 7 7 9 2 5 3 5 11 14 16 20 18 24 25 26 24 24 22 22 19 20 19 12 7 7 13 12 13 14 17 17 24 25 20 20 21
14 10 6 3 3 3 1 6 8 4 6 8 5 4 6 4 10 17 17 18 24 26 27 26 27 24 24 23 21 21 18 16 5 9 11 12 7 9 16 18 20 23 20 20 21
11 9 5 4 8 4 6 7 8 7 4 6 3 4 7 9 15 11 21 17 23 25 22 28 28 28 25 26 22 19 16 20 16 13 16 19 7 9 17 17 20 20 25 23 24
7 8 5 2 3 5 8 9 7 8 4 3 4 8 12 11 9 13 8 17 17 22 26 29 24 26 27 23 23 21 21 13 15 15 15 18 13 11 17 17 19 21 21 23 23
3 4 4 5 7 10 10 11 7 5 4 5 10 12 15 16 8 13 16 17 18 17 25 26 32 25 27 23 20 26 20 14 13 13 14 19 14 11 7 5 13 21 22 23 24
2 3 5 5 8 9 12 11 3 6 5 11 12 15 18 7 16 7 15 18 23 27 18 22 22 32 23 23 25 26 24 17 20 14 16 18 9 8 5 3 13 16 22 23 22
4 5 7 4 8 8 10 6 6 5 6 8 13 12 16 1 3 15 15 18 18 23 25 21 27 21 25 24 24 25 25 25 24 18 13 15 18 10 8 9 9 11 20 24 24
7 8 3 5 8 12 10 4 1 4 8 7 12 7 11 13 11 18 14 6 10 18 25 22 21 28 30 22 25 28 21 21 18 23 21 17 12 13 19 12 11 14 14 18 22
9 5 6 4 10 10 5 5 0 4 7 6 11 12 14 14 11 20 18 8 11 14 13 15 19 21 24 25 26 21 23 18 21 20 17 16 13 9 5 14 11 8 11 16 19
17 6 5 4 9 1 2 2 3 3 2 7 7 9 14 12 15 19 18 12 12 13 15 18 18 15 20 19 25 23 24 25 15 24 17 17 12 9 19 14 7 6 6 7 18
6 4 4 8 6 2 6 4 4 7 6 7 8 6 11 14 16 17 15 4 7 14 11 13 16 15 21 21 16 21 26 25 23 19 23 16 16 11 10 10 8 9 4 4 11
5 3 5 2 4 7 1 5 5 7 10 5 11 9 11 13 14 16 17 10 8 15 8 8 16 16 17 18 18 25 24 28 25 19 19 20 19 14 15 16 9 10 7 3 3
2 4 4 3 3 5 4 4 7 3 2 9 9 8 8 13 14 14 18 8 14 5 8 10 16 20 26 26 23 21 25 27 25 25 24 21 20 19 14 13 15 11 9 7 5
6 4 3 1 2 6 6 3 7 5 7 9 6 11 12 13 13 16 15 13 14 14 7 16 12 16 21 21 26 22 19 26 29 28 25 25 21 16 8 18 15 10 12 15 13
4 2 6 7 4 6 3 4 5 5 2 4 9 11 12 11 13 16 17 18 18 17 15 14 14 15 15 17 21 24 22 18 20 26 23 21 21 13 18 16 12 10 11 10 9
Wind_Direction
8 3 358 355 352 349 345 341 339 336 328 323 321 322 326 323 318 286 266 104 175 168 157 181 190 180 312 116 292 278 277 113 92 159 138 169 115 83 106 129 137 54 134 134 147
1 357 351 347 342 341 336 335 333 331 323 319 316 318 323 324 308 265 219 236 187 174 159 190 190 173 225 245 255 271 350 57 148 88 134 135 125 125 136 120 126 111 118 135 150
355 350 343 338 337 333 331 331 327 324 319 313 312 315 319 324 277 248 164 212 191 175 164 198 271 179 238 219 242 281 48 83 149 109 107 125 123 159 125 141 140 140 141 151 155
348 344 341 335 333 329 331 330 325 323 317 308 308 311 311 293 251 62 292 194 188 183 165 200 241 277 248 164 211 234 356 355 90 150 148 97 70 163 59 68 131 149 148 154 163
346 344 341 338 334 332 332 327 324 318 308 299 302 309 310 224 252 29 307 186 177 200 229 198 248 280 254 192 206 128 144 229 191 138 112 134 135 104 95 121 130 146 153 159 164
347 344 341 337 335 332 328 328 328 328 310 286 286 289 246 249 32 136 160 174 187 209 227 233 256 309 300 302 81 177 147 137 132 128 148 138 131 123 133 135 144 149 161 166 158
345 342 338 334 331 328 330 334 337 339 324 263 259 266 268 253 313 222 196 199 205 218 236 238 274 284 314 258 184 132 161 167 162 154 151 213 166 173 152 146 148 170 167 163 160
342 340 336 330 329 329 331 336 347 359 15 177 213 253 267 65 257 239 211 207 213 228 249 277 285 272 276 166 218 206 205 192 148 167 131 223 190 135 168 161 160 188 170 167 163
346 339 334 330 326 325 326 320 336 359 22 152 228 238 251 346 220 225 219 220 214 228 239 259 267 257 231 245 221 225 217 122 240 195 133 226 156 144 175 181 172 187 177 177 170
345 340 336 331 327 323 323 298 280 291 279 254 264 252 227 272 25 245 215 226 223 221 228 220 238 241 237 223 224 212 224 196 191 167 199 187 174 151 178 195 175 186 184 180 175
343 341 336 333 327 328 327 264 232 198 225 294 326 303 270 250 258 234 214 210 231 223 218 207 222 224 230 236 245 318 290 206 148 96 204 203 242 158 171 202 172 196 186 185 180
343 340 338 337 339 321 305 10 42 339 300 273 282 268 268 278 276 230 196 208 209 221 218 225 224 224 232 238 252 258 267 236 142 150 239 206 211 188 167 194 178 203 184 188 186
347 348 343 353 157 283 30 29 331 313 261 138 342 307 25 259 250 257 194 217 216 222 217 225 218 229 233 239 236 208 233 227 245 142 226 267 247 216 171 185 174 197 194 192 190
354 4 17 129 254 20 111 332 316 306 272 124 151 115 237 305 260 232 220 229 230 228 229 230 237 214 232 231 234 235 223 264 185 239 263 192 268 193 174 184 194 196 189 192 193
1 6 51 33 333 281 339 310 311 251 273 61 64 343 261 253 324 226 227 225 239 231 231 232 226 234 219 231 230 250 245 223 240 259 253 220 246 186 171 189 191 202 179 199 191
9 33 64 33 236 340 307 297 259 236 77 311 321 327 298 287 250 257 218 232 248 247 238 243 233 234 231 223 229 238 250 236 252 239 249 246 237 193 190 191 186 191 205 196 192
6 46 27 337 349 325 305 253 242 9 49 4 342 308 306 282 314 252 242 214 226 222 233 233 239 223 235 225 220 229 226 232 222 228 239 236 226 231 107 159 186 182 196 198 196
247 293 318 299 316 306 270 250 327 50 355 335 306 300 281 340 297 253 260 251 213 244 233 224 222 227 211 231 222 217 229 229 219 221 228 228 227 245 236 312 170 185 186 192 199
228 244 248 340 312 298 266 270 33 8 350 320 300 263 292 255 234 286 268 257 241 215 246 241 230 220 230 220 238 223 223 240 252 242 256 214 197 170 146 198 169 199 178 188 195
251 252 140 303 299 277 263 358 76 349 326 308 291 324 307 323 320 314 281 37 316 318 225 258 268 225 215 213 228 241 216 224 240 247 248 239 200 228 181 203 193 184 185 189 192
248 247 93 292 281 254 301 65 189 72 333 329 339 314 306 312 321 299 301 51 0 312 301 262 258 270 208 200 219 219 234 221 237 234 246 244 233 183 133 171 164 181 198 195 193
279 253 79 283 263 288 37 19 15 301 232 300 289 304 301 326 303 298 301 12 357 319 279 253 259 245 227 210 216 235 215 233 232 228 240 257 251 207 177 142 137 215 23 300 195
273 344 108 278 284 166 112 208 281 312 326 316 296 310 304 291 294 271 328 102 351 336 350 339 249 251 250 197 203 228 241 232 234 238 230 229 241 100 87 81 111 59 37 250 239
282 243 152 224 330 302 7 242 279 143 294 293 293 282 278 288 286 278 279 309 331 302 331 288 264 254 244 230 211 216 236 237 231 236 240 226 232 167 164 154 136 87 40 82 255
310 57 356 317 95 338 312 358 282 269 221 279 293 236 323 302 299 291 273 298 307 151 285 281 262 257 259 268 258 214 216 237 236 236 237 232 231 237 196 112 90 87 69 84 127
326 325 178 82 267 272 140 177 310 319 292 298 276 320 309 289 295 299 308 295 297 297 323 306 295 271 263 255 258 269 243 212 227 238 239 246 246 215 128 88 81 67 86 54 29
6 257 280 123 228 266 21 356 321 316 265 287 308 302 292 318 330 304 294 284 274 280 282 282 275 276 251 245 255 246 239 237 223 227 237 235 244 253 97 85 64 67 67 62 39
Height
812 809 806 804 801 799 797 794 792 789 786 783 781 779 777 774 771 768 761 761 761 763 767 768 768 766 766 759 763 753 777 781 761 765 760 748 753 750 753 762 761 763 771 781 793
812 810 807 804 802 799 796 793 791 788 785 782 780 779 777 773 769 762 760 760 761 762 767 766 761 759 767 768 765 759 768 756 752 745 751 746 752 758 761 768 770 769 776 787 793
812 810 807 804 801 799 796 792 789 787 784 781 780 778 776 774 766 749 756 759 761 763 767 768 761 759 768 761 760 756 759 749 745 743 747 750 754 747 759 767 768 779 781 788 792
812 809 806 803 800 797 793 790 787 784 782 780 779 777 776 775 773 754 757 758 761 764 765 767 759 764 758 756 755 765 753 744 744 744 750 761 758 760 760 767 762 773 781 786 790
811 808 805 801 798 794 790 788 785 782 781 779 778 777 775 768 756 757 757 759 763 765 759 760 754 748 768 746 739 760 754 747 752 747 751 758 765 770 772 765 770 775 782 786 788
809 805 802 798 794 792 790 787 782 780 778 778 778 777 776 769 757 759 760 761 761 763 757 752 748 743 743 739 754 744 739 740 741 753 755 761 768 769 772 768 774 780 781 783 786
809 805 801 797 794 791 788 784 781 778 777 777 777 777 770 758 758 758 760 761 760 758 752 750 748 749 739 743 733 733 748 742 743 751 756 752 770 774 770 770 779 784 780 781 786
808 804 800 796 793 789 786 783 780 778 777 777 777 778 763 759 760 760 758 757 758 757 754 750 753 749 745 734 735 744 742 760 746 746 749 758 797 766 767 772 784 780 779 782 786
808 804 799 796 792 789 786 783 781 779 778 777 776 771 758 759 758 757 756 754 756 757 757 755 754 750 741 752 759 749 767 769 791 742 750 757 786 766 767 769 783 775 778 781 785
806 801 798 795 791 788 785 782 780 779 777 777 773 772 757 754 755 756 756 757 753 754 755 756 754 754 749 748 775 759 749 773 750 744 750 760 761 757 761 764 773 770 775 778 782
804 800 797 794 791 788 784 781 777 778 770 762 759 757 755 756 758 757 755 757 756 753 763 752 762 763 746 735 726 736 733 737 736 738 752 753 751 755 753 759 769 770 772 774 777
802 799 796 793 791 788 784 776 782 784 775 756 758 758 758 758 760 751 752 758 758 761 753 754 761 741 733 729 732 747 742 740 744 738 747 739 747 737 742 751 763 770 766 769 772
801 797 794 792 790 788 784 785 785 782 774 755 756 755 755 758 756 750 748 750 752 758 749 753 741 733 734 737 741 741 741 737 744 743 738 742 750 738 733 742 750 756 758 761 766
800 796 794 792 793 786 783 786 783 782 773 764 756 753 753 751 756 743 739 748 749 751 745 741 728 732 739 740 733 745 721 727 748 748 760 730 767 740 733 743 744 743 754 758 760
799 796 794 791 790 782 787 785 783 781 782 760 755 754 750 754 746 739 741 742 749 745 743 740 733 733 739 736 727 736 718 727 730 742 740 742 753 727 726 743 741 740 744 750 750
799 797 794 792 790 789 787 785 782 783 790 767 756 756 753 741 745 740 744 741 735 743 734 731 711 717 721 719 721 722 728 729 740 738 760 735 735 726 721 723 725 730 733 736 742
799 797 795 793 787 788 786 779 779 777 768 771 771 760 755 751 747 743 746 750 756 764 755 736 725 712 711 726 720 728 739 763 772 765 765 720 732 721 710 709 707 718 725 729 732
799 797 795 793 791 788 783 774 792 780 777 769 769 764 763 750 752 746 748 748 737 739 739 747 750 719 708 721 731 730 731 749 780 765 749 717 745 724 697 694 695 700 712 722 727
798 796 791 790 789 788 778 775 785 788 783 782 770 766 761 751 756 750 746 742 728 730 744 737 732 706 706 713 719 727 738 717 732 721 732 714 710 700 699 703 698 702 705 714 721
797 788 786 789 786 783 773 798 783 783 783 777 783 772 776 764 763 753 741 734 733 722 714 725 738 705 702 710 712 716 710 744 731 761 761 725 725 723 707 710 703 705 706 707 713
796 781 784 787 784 776 772 780 782 780 785 787 784 784 777 774 771 763 750 751 748 741 726 730 730 718 699 714 723 722 723 719 720 727 746 749 726 686 699 696 704 701 699 701 706
787 781 783 785 783 773 773 782 797 782 781 782 783 783 785 781 780 769 763 770 757 749 751 733 727 733 709 695 702 704 717 717 734 746 725 724 721 670 678 689 697 699 701 696 696
782 776 782 782 778 769 780 782 786 787 786 789 789 784 787 788 790 772 762 755 759 757 762 748 736 747 729 705 704 721 713 709 711 713 730 740 726 677 684 693 698 704 707 706 696
787 780 775 778 778 782 783 782 789 786 791 793 791 786 784 786 775 774 767 756 759 761 769 762 742 737 735 722 709 729 722 714 715 729 724 718 713 696 698 704 706 712 713 708 704
789 786 790 779 778 785 788 787 790 789 788 787 790 787 791 796 781 776 768 762 766 764 758 751 754 740 725 709 704 707 718 718 718 714 723 712 709 694 695 697 711 715 717 716 716
797 794 788 786 793 790 797 785 795 791 793 792 794 790 792 794 789 788 780 780 776 760 762 751 757 743 733 716 712 713 702 706 713 710 709 706 706 683 692 703 722 728 726 736 746
805 802 796 798 784 790 783 791 794 796 790 795 796 797 794 789 789 789 784 781 777 776 773 770 762 747 744 723 721 727 709 701 703 701 705 719 703 689 714 735 743 746 752 759 762